Weather WX

World > North America > United States > Pennsylvania

Canoe Camp, Pennsylvania Regional Weather

Lat: 41.81N, Lon: 77.08W
Wx Zone: PAZ037
Feedback

Canoe Camp, PA Regional Weather

Expires:201906192200;;749597
ASUS41 KCTP 192110
RWRCTP

REGIONAL WEATHER ROUNDUP
NATIONAL WEATHER SERVICE STATE COLLEGE PA
500 PM EDT WED JUN 19 2019

Note: "fair" indicates few or no clouds below 12,000 feet with no 
significant weather and/or obstructions to visibility.

* = STATION THAT DOES NOT REPORT PRECIPITATION /E.G. RAIN...SNOW...ETC/
    THUNDER OR FOG.


PAZ004>006-010>012-017>019-024>028-033>037-041-042-045-046-049>053-192200-
CENTRAL PENNSYLVANIA
  
CITY           SKY/WX    TMP DP  RH WIND       PRES   REMARKS
BRADFORD       FAIR      74  64  71 S8        29.76F                  
DUBOIS           N/A     69  66  90 CALM      29.77F                  
CLEARFIELD     PTSUNNY   72  70  93 N5        29.77F                  
JOHNSTOWN      LGT RAIN  70  66  87 SE3       29.78F                  
ALTOONA        LGT RAIN  73  69  87 NE3       29.75F                  
STATE COLLEGE  RAIN      72  70  94 SW6       29.77S                  
WILLIAMSPORT   TSTM      76  66  71 E9        29.71F                  
SELINSGROVE    PTSUNNY   80  68  66 VRB5      29.72F                  
FT INDIANTOWN  RAIN      75  71  89 E8        29.74F FOG              
CAPITAL CITY   PTSUNNY   80  69  69 E6        29.72F                  
HARRISBURG     PTSUNNY   82  71  69 SE5       29.71F                  
YORK           FAIR      80  71  74 E5        29.73F                  
$$


SKY/WX - Weather  TMP - Temperature  DP - Dew Point  RH - Relative Humidity
WIND - Wind Direction/Speed PRES - Barometric Pressure VSB - Visibility
WCI - Wind Chill Index E13G22 Wind - East Wind 13 mph/Gusts of 22 mph